| time (UTC) | temp C | wind direction | speed KPH | gust KPH | rain 1hr cm | rain 24hr cm | rain mn cm | humidity % | barometer mb |
| 20260503220520 | 11 | 225 | 1.6 | 4.8 | 0.00 | 0.03 | 0.03 | 89 | 1012.3 |
| 20260503215519 | 11 | 270 | 3.2 | 6.4 | 0.00 | 0.03 | 0.03 | 89 | 1012.3 |
| 20260503214524 | 11 | 0.0 | 0.0 | 0.00 | 0.03 | 0.03 | 88 | 1012.3 | |
| 20260503213541 | 11 | 0.0 | 3.2 | 0.00 | 0.03 | 0.03 | 88 | 1012.1 | |
| 20260503212524 | 11 | 0.0 | 3.2 | 0.00 | 0.03 | 0.03 | 88 | 1012.0 | |
| 20260503211524 | 11 | 0.0 | 1.6 | 0.00 | 0.03 | 0.03 | 88 | 1011.9 | |
| 20260503210520 | 11 | 270 | 1.6 | 3.2 | 0.00 | 0.03 | 0.03 | 88 | 1011.9 |
| 20260503205520 | 11 | 0.0 | 3.2 | 0.00 | 0.03 | 0.03 | 87 | 1011.8 | |
| 20260503204526 | 11 | 270 | 1.6 | 6.4 | 0.00 | 0.03 | 0.03 | 87 | 1011.8 |
| 20260503203544 | 11 | 270 | 1.6 | 4.8 | 0.00 | 0.03 | 0.03 | 87 | 1011.8 |
| 20260503202520 | 11 | 225 | 1.6 | 3.2 | 0.00 | 0.03 | 0.03 | 86 | 1011.7 |
| 20260503201519 | 11 | 225 | 3.2 | 8.0 | 0.00 | 0.03 | 0.03 | 85 | 1011.4 |
| 20260503200519 | 12 | 225 | 4.8 | 11.3 | 0.00 | 0.03 | 0.03 | 85 | 1011.3 |
| 20260503195543 | 12 | 225 | 3.2 | 6.4 | 0.00 | 0.03 | 0.03 | 84 | 1011.2 |
| 20260503194539 | 12 | 225 | 3.2 | 6.4 | 0.00 | 0.03 | 0.03 | 84 | 1011.2 |
| 20260503193519 | 12 | 203 | 3.2 | 6.4 | 0.00 | 0.03 | 0.03 | 83 | 1011.0 |
| 20260503192519 | 13 | 225 | 4.8 | 8.0 | 0.00 | 0.05 | 0.03 | 82 | 1010.9 |
| 20260503191519 | 13 | 225 | 3.2 | 6.4 | 0.00 | 0.05 | 0.03 | 81 | 1010.6 |
| 20260503190534 | 13 | 0.0 | 4.8 | 0.00 | 0.05 | 0.03 | 80 | 1010.8 | |
| 20260503185546 | 14 | 0.0 | 1.6 | 0.00 | 0.05 | 0.03 | 79 | 1010.7 | |
| 20260503184526 | 14 | 225 | 3.2 | 4.8 | 0.00 | 0.05 | 0.03 | 78 | 1010.6 |
| 20260503183521 | 15 | 225 | 4.8 | 6.4 | 0.00 | 0.08 | 0.03 | 78 | 1010.7 |
| 20260503182519 | 15 | 203 | 4.8 | 9.7 | 0.00 | 0.10 | 0.03 | 77 | 1010.4 |
| 20260503181519 | 15 | 225 | 6.4 | 9.7 | 0.00 | 0.10 | 0.03 | 77 | 1010.6 |
| 20260503180520 | 15 | 225 | 4.8 | 8.0 | 0.00 | 0.10 | 0.03 | 78 | 1010.6 |
| 20260503175539 | 15 | 203 | 4.8 | 8.0 | 0.00 | 0.13 | 0.03 | 77 | 1010.5 |
| 20260503174519 | 15 | 180 | 3.2 | 6.4 | 0.00 | 0.15 | 0.03 | 77 | 1010.4 |
| 20260503173520 | 15 | 180 | 3.2 | 8.0 | 0.00 | 0.15 | 0.03 | 77 | 1010.6 |
| 20260503172519 | 15 | 180 | 4.8 | 8.0 | 0.00 | 0.18 | 0.03 | 78 | 1010.5 |
| 20260503171519 | 15 | 203 | 8.0 | 11.3 | 0.00 | 0.23 | 0.03 | 77 | 1010.4 |
| 20260503170520 | 15 | 203 | 9.7 | 16.1 | 0.00 | 0.25 | 0.03 | 76 | 1010.3 |
| 20260503150519 | 16 | 225 | 9.7 | 16.1 | 0.00 | 1.17 | 0.03 | 77 | 1010.6 |
| 20260503130517 | 15 | 203 | 4.8 | 9.7 | 0.00 | 1.83 | 0.03 | 74 | 1010.8 |
| 20260503110517 | 16 | 90 | 3.2 | 8.0 | 0.00 | 1.83 | 0.03 | 78 | 1011.1 |
| 20260503081517 | 12 | 113 | 3.2 | 6.4 | 0.00 | 1.83 | 0.03 | 90 | 1011.2 |
| 20260503080518 | 12 | 135 | 3.2 | 8.0 | 0.00 | 1.83 | 0.03 | 91 | 1011.3 |
| 20260503072518 | 12 | 68 | 3.2 | 6.4 | 0.00 | 1.83 | 0.03 | 93 | 1011.2 |
| 20260503071518 | 12 | 68 | 3.2 | 8.0 | 0.00 | 1.83 | 0.03 | 95 | 1011.2 |
| 20260503070518 | 12 | 90 | 3.2 | 8.0 | 0.00 | 1.83 | 0.03 | 95 | 1011.1 |
| 20260503054518 | 10 | 0.0 | 0.0 | 0.00 | 1.83 | 0.03 | 94 | 1010.7 | |
| 20260503053518 | 10 | 0.0 | 0.0 | 0.00 | 1.83 | 0.03 | 93 | 1010.8 | |
| 20260503052518 | 10 | 0.0 | 0.0 | 0.00 | 1.83 | 0.03 | 93 | 1010.6 | |
| 20260503051518 | 10 | 0.0 | 0.0 | 0.00 | 1.83 | 0.03 | 93 | 1010.7 | |
| 20260503050518 | 10 | 248 | 1.6 | 3.2 | 0.00 | 1.83 | 0.03 | 93 | 1010.6 |
| 20260503045518 | 10 | 248 | 1.6 | 3.2 | 0.00 | 1.83 | 0.03 | 93 | 1010.3 |
| 20260503044654 | 10 | 0.0 | 3.2 | 0.00 | 1.83 | 0.03 | 93 | 1010.3 | |
| 20260503043543 | 10 | 248 | 3.2 | 4.8 | 0.00 | 1.83 | 0.03 | 93 | 1010.3 |
| 20260503042518 | 10 | 248 | 1.6 | 4.8 | 0.00 | 1.83 | 0.03 | 93 | 1010.4 |
| 20260503041518 | 10 | 0.0 | 3.2 | 0.00 | 1.83 | 0.03 | 93 | 1010.5 | |
| 20260503040520 | 11 | 248 | 1.6 | 3.2 | 0.00 | 1.83 | 0.03 | 93 | 1010.5 |
| 20260503035524 | 11 | 270 | 3.2 | 4.8 | 0.00 | 1.83 | 0.03 | 93 | 1010.5 |
| 20260503034518 | 11 | 248 | 1.6 | 6.4 | 0.00 | 1.83 | 0.03 | 93 | 1010.6 |
| 20260503033540 | 11 | 248 | 1.6 | 3.2 | 0.00 | 1.83 | 0.03 | 93 | 1010.7 |
| 20260503032539 | 11 | 248 | 3.2 | 4.8 | 0.00 | 1.83 | 0.03 | 93 | 1010.8 |
| 20260503031540 | 11 | 248 | 1.6 | 3.2 | 0.00 | 1.83 | 0.03 | 93 | 1010.7 |
| 20260503030520 | 11 | 248 | 3.2 | 4.8 | 0.00 | 1.83 | 0.03 | 93 | 1010.9 |
| 20260503025520 | 11 | 248 | 1.6 | 4.8 | 0.00 | 1.83 | 0.03 | 93 | 1010.7 |
| 20260503024520 | 11 | 248 | 1.6 | 4.8 | 0.00 | 1.83 | 0.03 | 93 | 1010.7 |
| 20260503023518 | 11 | 248 | 1.6 | 3.2 | 0.00 | 1.83 | 0.03 | 93 | 1010.7 |
| 20260503022519 | 11 | 248 | 1.6 | 4.8 | 0.00 | 1.83 | 0.03 | 93 | 1011.0 |
| 20260503021519 | 11 | 248 | 3.2 | 6.4 | 0.00 | 1.83 | 0.03 | 93 | 1011.0 |
| 20260503020521 | 11 | 248 | 1.6 | 4.8 | 0.00 | 1.83 | 0.03 | 93 | 1010.9 |
| 20260503015525 | 11 | 248 | 3.2 | 8.0 | 0.00 | 1.83 | 0.03 | 93 | 1011.0 |
| 20260503014519 | 11 | 248 | 3.2 | 4.8 | 0.00 | 1.83 | 0.03 | 93 | 1011.0 |
| 20260503013531 | 11 | 270 | 4.8 | 9.7 | 0.00 | 1.83 | 0.03 | 93 | 1011.0 |
| 20260503012520 | 11 | 0.0 | 4.8 | 0.03 | 1.83 | 0.03 | 93 | 1011.1 | |
| 20260503011524 | 11 | 248 | 3.2 | 4.8 | 0.03 | 1.83 | 0.03 | 93 | 1011.0 |
| 20260503010521 | 11 | 225 | 3.2 | 4.8 | 0.03 | 1.83 | 0.03 | 93 | 1011.2 |
| 20260503005540 | 11 | 225 | 1.6 | 3.2 | 0.03 | 1.83 | 0.03 | 93 | 1011.4 |
| 20260503003519 | 11 | 0.0 | 3.2 | 0.03 | 1.83 | 0.03 | 93 | 1011.3 | |
| 20260503002520 | 11 | 225 | 1.6 | 4.8 | 0.00 | 1.83 | 0.00 | 93 | 1011.3 |
| 20260503001521 | 11 | 225 | 1.6 | 3.2 | 0.00 | 1.83 | 0.00 | 93 | 1011.6 |
| 20260503000520 | 11 | 225 | 1.6 | 4.8 | 0.00 | 1.83 | 0.00 | 93 | 1011.6 |
| 20260502235519 | 11 | 0.0 | 0.0 | 0.00 | 1.83 | 0.00 | 93 | 1011.7 | |
| 20260502234523 | 11 | 0.0 | 0.0 | 0.00 | 1.83 | 0.00 | 92 | 1011.7 | |
| 20260502233520 | 11 | 0.0 | 0.0 | 0.00 | 1.83 | 0.00 | 93 | 1011.8 | |
| 20260502232522 | 11 | 0.0 | 0.0 | 0.00 | 1.83 | 0.00 | 93 | 1011.8 | |
| 20260502231521 | 11 | 0.0 | 0.0 | 0.00 | 1.83 | 0.00 | 93 | 1011.8 | |
| 20260502230545 | 11 | 0.0 | 3.2 | 0.00 | 1.83 | 0.00 | 93 | 1011.8 | |
| 20260502225520 | 11 | 225 | 1.6 | 3.2 | 0.00 | 1.83 | 1.83 | 92 | 1011.9 |
| 20260502224520 | 11 | 248 | 1.6 | 4.8 | 0.00 | 1.83 | 1.83 | 93 | 1012.1 |
| 20260502223540 | 11 | 0.0 | 0.0 | 0.00 | 1.83 | 1.83 | 92 | 1011.9 | |
| 20260502222518 | 11 | 0.0 | 0.0 | 0.00 | 1.83 | 1.83 | 92 | 1011.9 | |
| 20260502221539 | 11 | 0.0 | 0.0 | 0.00 | 1.83 | 1.83 | 92 | 1012.2 |